| time (UTC) | temp C | wind direction | speed KPH | gust KPH | rain 1hr cm | rain 24hr cm | rain mn cm | humidity % | barometer mb |
| 20260502202840 | 17 | 180 | 1.6 | 3.2 | 0.00 | 0.51 | 0.51 | 79 | 1011.8 |
| 20260502201820 | 17 | 0.0 | 0.0 | 0.00 | 0.51 | 0.51 | 79 | 1011.8 | |
| 20260502200830 | 17 | 113 | 1.6 | 3.2 | 0.00 | 0.51 | 0.51 | 78 | 1011.7 |
| 20260502195831 | 17 | 90 | 4.8 | 6.4 | 0.00 | 0.51 | 0.51 | 77 | 1011.7 |
| 20260502194830 | 17 | 158 | 1.6 | 3.2 | 0.00 | 0.51 | 0.51 | 76 | 1011.6 |
| 20260502193820 | 17 | 45 | 1.6 | 6.4 | 0.00 | 0.51 | 0.51 | 74 | 1011.7 |
| 20260502192840 | 17 | 90 | 4.8 | 8.0 | 0.00 | 0.51 | 0.51 | 72 | 1011.5 |
| 20260502191819 | 17 | 113 | 1.6 | 3.2 | 0.00 | 0.51 | 0.51 | 72 | 1011.7 |
| 20260502191017 | 16 | 68 | 3.2 | 4.8 | 0.00 | 0.51 | 0.51 | 73 | 1011.7 |
| 20260502185920 | 16 | 0.0 | 1.6 | 0.00 | 0.51 | 0.51 | 74 | 1011.7 | |
| 20260502184920 | 16 | 45 | 1.6 | 3.2 | 0.00 | 0.51 | 0.51 | 74 | 1011.8 |
| 20260502183952 | 17 | 0 | 3.2 | 4.8 | 0.00 | 0.51 | 0.51 | 74 | 1011.6 |
| 20260502182930 | 17 | 45 | 3.2 | 4.8 | 0.00 | 0.51 | 0.51 | 74 | 1011.8 |
| 20260502181919 | 17 | 45 | 3.2 | 4.8 | 0.00 | 0.51 | 0.51 | 73 | 1011.9 |
| 20260502180920 | 17 | 0 | 3.2 | 4.8 | 0.00 | 0.51 | 0.51 | 74 | 1011.9 |
| 20260502170519 | 19 | 45 | 8.0 | 9.7 | 0.00 | 0.51 | 0.51 | 60 | 1012.4 |
| 20260502163551 | 19 | 45 | 4.8 | 6.4 | 0.00 | 0.51 | 0.51 | 63 | 1012.6 |
| 20260502162519 | 19 | 23 | 6.4 | 9.7 | 0.00 | 0.51 | 0.51 | 64 | 1012.8 |
| 20260502161519 | 19 | 45 | 3.2 | 6.4 | 0.00 | 0.51 | 0.51 | 64 | 1012.8 |
| 20260502160519 | 19 | 338 | 6.4 | 9.7 | 0.00 | 0.51 | 0.51 | 63 | 1013.1 |
| 20260502151519 | 20 | 23 | 4.8 | 6.4 | 0.00 | 0.51 | 0.51 | 60 | 1013.7 |
| 20260502150541 | 21 | 23 | 4.8 | 6.4 | 0.00 | 0.51 | 0.51 | 60 | 1013.8 |
| 20260502130519 | 23 | 68 | 1.6 | 3.2 | 0.00 | 0.51 | 0.51 | 51 | 1015.5 |
| 20260502123611 | 23 | 248 | 6.4 | 12.9 | 0.00 | 0.51 | 0.51 | 50 | 1015.8 |
| 20260502122551 | 23 | 180 | 4.8 | 8.0 | 0.00 | 0.51 | 0.51 | 51 | 1016.1 |
| 20260502121551 | 23 | 158 | 4.8 | 8.0 | 0.00 | 0.51 | 0.51 | 49 | 1016.2 |
| 20260502120539 | 22 | 45 | 1.6 | 4.8 | 0.00 | 0.51 | 0.51 | 54 | 1016.4 |
| 20260502115529 | 22 | 338 | 1.6 | 3.2 | 0.00 | 0.51 | 0.51 | 57 | 1016.4 |
| 20260502114550 | 22 | 248 | 1.6 | 3.2 | 0.00 | 0.51 | 0.51 | 55 | 1016.7 |
| 20260502113519 | 22 | 0.0 | 1.6 | 0.00 | 0.51 | 0.51 | 55 | 1016.8 | |
| 20260502112610 | 23 | 248 | 4.8 | 6.4 | 0.00 | 0.51 | 0.51 | 54 | 1016.9 |
| 20260502111523 | 22 | 225 | 1.6 | 4.8 | 0.00 | 0.51 | 0.51 | 56 | 1017.0 |
| 20260502110540 | 22 | 248 | 3.2 | 3.2 | 0.00 | 0.51 | 0.51 | 51 | 1017.2 |
| 20260502105518 | 21 | 158 | 1.6 | 3.2 | 0.00 | 0.51 | 0.51 | 50 | 1017.2 |
| 20260502104520 | 20 | 225 | 4.8 | 6.4 | 0.00 | 0.51 | 0.51 | 53 | 1017.4 |
| 20260502103600 | 20 | 203 | 1.6 | 3.2 | 0.00 | 0.51 | 0.51 | 56 | 1017.4 |
| 20260502102520 | 20 | 0.0 | 1.6 | 0.00 | 0.51 | 0.51 | 64 | 1017.5 | |
| 20260502101530 | 20 | 90 | 3.2 | 6.4 | 0.00 | 0.51 | 0.51 | 60 | 1017.6 |
| 20260502100529 | 20 | 225 | 3.2 | 4.8 | 0.00 | 0.51 | 0.51 | 60 | 1017.9 |
| 20260502090543 | 17 | 270 | 1.6 | 3.2 | 0.00 | 0.51 | 0.51 | 74 | 1018.1 |
| 20260502070549 | 14 | 180 | 4.8 | 11.3 | 0.03 | 0.51 | 0.51 | 90 | 1018.3 |
| 20260502065521 | 13 | 270 | 1.6 | 3.2 | 0.03 | 0.51 | 0.51 | 91 | 1018.2 |
| 20260502064520 | 13 | 0.0 | 1.6 | 0.03 | 0.51 | 0.51 | 92 | 1018.3 | |
| 20260502063541 | 13 | 225 | 3.2 | 12.9 | 0.03 | 0.51 | 0.51 | 92 | 1018.3 |
| 20260502062520 | 12 | 0.0 | 3.2 | 0.03 | 0.51 | 0.51 | 92 | 1018.3 | |
| 20260502061521 | 12 | 248 | 3.2 | 6.4 | 0.00 | 0.48 | 0.48 | 92 | 1018.4 |
| 20260502060602 | 12 | 225 | 1.6 | 3.2 | 0.00 | 0.48 | 0.48 | 92 | 1018.3 |
| 20260502055531 | 13 | 0.0 | 3.2 | 0.00 | 0.48 | 0.48 | 92 | 1018.4 | |
| 20260502054738 | 13 | 0.0 | 3.2 | 0.00 | 0.48 | 0.48 | 93 | 1018.2 | |
| 20260502053849 | 13 | 225 | 1.6 | 4.8 | 0.00 | 0.48 | 0.48 | 93 | 1018.2 |
| 20260502052903 | 13 | 225 | 1.6 | 3.2 | 0.00 | 0.48 | 0.48 | 93 | 1017.9 |
| 20260502051821 | 13 | 0.0 | 0.0 | 0.00 | 0.48 | 0.48 | 93 | 1017.9 | |
| 20260502050820 | 13 | 0.0 | 0.0 | 0.00 | 0.48 | 0.48 | 93 | 1017.7 | |
| 20260502045901 | 13 | 203 | 3.2 | 4.8 | 0.00 | 0.48 | 0.48 | 93 | 1017.7 |
| 20260502044853 | 13 | 0.0 | 1.6 | 0.00 | 0.48 | 0.48 | 92 | 1017.6 | |
| 20260502043840 | 13 | 0.0 | 0.0 | 0.00 | 0.48 | 0.48 | 92 | 1017.8 | |
| 20260502042820 | 13 | 0.0 | 1.6 | 0.00 | 0.48 | 0.48 | 92 | 1017.9 | |
| 20260502041820 | 13 | 203 | 1.6 | 3.2 | 0.00 | 0.48 | 0.48 | 92 | 1017.9 |
| 20260502040831 | 13 | 0.0 | 0.0 | 0.00 | 0.48 | 0.48 | 92 | 1017.9 | |
| 20260502035852 | 13 | 0.0 | 0.0 | 0.00 | 0.48 | 0.48 | 92 | 1018.0 | |
| 20260502034921 | 13 | 0.0 | 1.6 | 0.00 | 0.48 | 0.48 | 92 | 1018.1 | |
| 20260502033831 | 13 | 0.0 | 1.6 | 0.00 | 0.48 | 0.48 | 92 | 1018.1 | |
| 20260502032820 | 13 | 270 | 1.6 | 3.2 | 0.05 | 0.48 | 0.48 | 92 | 1018.1 |
| 20260502031820 | 13 | 270 | 1.6 | 3.2 | 0.10 | 0.48 | 0.48 | 92 | 1018.2 |
| 20260502030841 | 14 | 225 | 1.6 | 3.2 | 0.15 | 0.48 | 0.48 | 92 | 1018.2 |
| 20260502025820 | 14 | 248 | 1.6 | 3.2 | 0.15 | 0.48 | 0.48 | 92 | 1018.3 |
| 20260502024821 | 14 | 248 | 3.2 | 3.2 | 0.20 | 0.48 | 0.48 | 92 | 1018.2 |
| 20260502023840 | 14 | 0.0 | 1.6 | 0.23 | 0.48 | 0.48 | 92 | 1018.5 | |
| 20260502022822 | 14 | 180 | 3.2 | 4.8 | 0.43 | 0.43 | 0.43 | 91 | 1018.7 |
| 20260502021820 | 14 | 225 | 1.6 | 3.2 | 0.36 | 0.38 | 0.38 | 91 | 1018.5 |
| 20260502020841 | 14 | 248 | 1.6 | 4.8 | 0.30 | 0.33 | 0.33 | 91 | 1018.7 |
| 20260502015902 | 14 | 270 | 1.6 | 3.2 | 0.33 | 0.33 | 0.33 | 91 | 1018.8 |
| 20260502014821 | 14 | 270 | 3.2 | 3.2 | 0.28 | 0.28 | 0.28 | 90 | 1018.8 |
| 20260502013820 | 14 | 270 | 3.2 | 3.2 | 0.23 | 0.23 | 0.23 | 89 | 1019.0 |
| 20260502012821 | 14 | 225 | 3.2 | 6.4 | 0.03 | 0.03 | 0.03 | 86 | 1019.1 |
| 20260502011833 | 14 | 225 | 3.2 | 6.4 | 0.03 | 0.03 | 0.03 | 85 | 1018.9 |
| 20260502010823 | 14 | 225 | 1.6 | 3.2 | 0.03 | 0.03 | 0.03 | 84 | 1018.8 |
| 20260502005832 | 15 | 270 | 1.6 | 1.6 | 0.00 | 0.00 | 0.00 | 84 | 1018.7 |
| 20260502004822 | 15 | 0.0 | 0.0 | 0.00 | 0.00 | 0.00 | 83 | 1018.7 | |
| 20260502003820 | 15 | 0.0 | 0.0 | 0.00 | 0.00 | 0.00 | 83 | 1018.7 | |
| 20260502002840 | 15 | 0.0 | 1.6 | 0.00 | 0.00 | 0.00 | 83 | 1018.7 | |
| 20260502001840 | 15 | 248 | 1.6 | 1.6 | 0.00 | 0.00 | 0.00 | 83 | 1018.6 |
| 20260502000831 | 15 | 248 | 1.6 | 3.2 | 0.00 | 0.00 | 0.00 | 84 | 1018.9 |
| 20260501235822 | 15 | 248 | 1.6 | 3.2 | 0.00 | 0.00 | 0.00 | 84 | 1018.9 |
| 20260501234820 | 15 | 0.0 | 0.0 | 0.00 | 0.00 | 0.00 | 84 | 1019.1 | |
| 20260501233820 | 15 | 0.0 | 0.0 | 0.00 | 0.00 | 0.00 | 83 | 1019.0 | |
| 20260501232831 | 15 | 0.0 | 0.0 | 0.00 | 0.00 | 0.00 | 83 | 1019.1 | |
| 20260501231832 | 15 | 0.0 | 0.0 | 0.00 | 0.00 | 0.00 | 81 | 1019.1 | |
| 20260501230822 | 15 | 203 | 1.6 | 1.6 | 0.00 | 0.00 | 0.00 | 81 | 1019.2 |
| 20260501225842 | 15 | 0.0 | 0.0 | 0.00 | 0.00 | 0.00 | 79 | 1019.2 | |
| 20260501224820 | 15 | 0.0 | 1.6 | 0.00 | 0.00 | 0.00 | 78 | 1019.2 | |
| 20260501223820 | 15 | 0.0 | 0.0 | 0.00 | 0.00 | 0.00 | 77 | 1019.4 | |
| 20260501222900 | 15 | 0.0 | 0.0 | 0.00 | 0.00 | 0.00 | 77 | 1019.5 | |
| 20260501221820 | 15 | 0.0 | 1.6 | 0.00 | 0.00 | 0.00 | 77 | 1019.8 | |
| 20260501220831 | 15 | 225 | 1.6 | 3.2 | 0.00 | 0.00 | 0.00 | 76 | 1019.8 |
| 20260501215850 | 15 | 225 | 1.6 | 3.2 | 0.00 | 0.00 | 0.00 | 76 | 1020.0 |
| 20260501214820 | 14 | 225 | 3.2 | 6.4 | 0.00 | 0.00 | 0.00 | 74 | 1020.2 |
| 20260501213830 | 14 | 270 | 3.2 | 4.8 | 0.00 | 0.00 | 0.00 | 73 | 1020.4 |
| 20260501212819 | 14 | 0.0 | 1.6 | 0.00 | 0.00 | 0.00 | 73 | 1020.2 | |
| 20260501211819 | 14 | 0.0 | 0.0 | 0.00 | 0.00 | 0.00 | 72 | 1020.1 | |
| 20260501210820 | 14 | 0.0 | 0.0 | 0.00 | 0.00 | 0.00 | 71 | 1019.7 | |
| 20260501205910 | 14 | 0.0 | 0.0 | 0.00 | 0.00 | 0.00 | 71 | 1019.5 | |
| 20260501204853 | 14 | 0.0 | 0.0 | 0.00 | 0.00 | 0.00 | 71 | 1019.7 | |
| 20260501203820 | 14 | 0.0 | 0.0 | 0.00 | 0.00 | 0.00 | 71 | 1019.6 |